カタログに戻る

STARLINK-37260

運用中通信VLEO
NORAD 68510·PAYLOAD·🇺🇸 United States

打ち上げ Mar 30, 2026 から Cape Canaveral Space Force Station

Loading…

次のパス (今後24時間)

TLE

最新Source: CelesTrak SupGP

元期: Sep 14, 2026, 23:09 UTC

1 68510C 26068C   26257.96506944  .00030628  00000+0  90504-3 0  2573
2 68510  53.1585 323.6557 0001262  87.7046 284.8197 15.34370999    13

AllMySatでSTARLINK-37260をリアルタイム追跡

Download on the App Store